OpenBCM V1.13 (Linux)

Packet Radio Mailbox

DB0FHN

[JN59NK Nuernberg]

 Login: GUEST





  
I0OJJ  > KEPS     25.11.24 18:32l 365 Lines 17490 Bytes #999 (0) @ AMSAT
BID : ORB24330.1
Read: DJ6UX GUEST
Subj: 2Line Orbital Elements 24330.AMSAT
Path: DB0FHN<DB0FFL<OE5XBL<OE6XPE<DB0ERF<DK0WUE<DK0WUE<VK5RSV<VK2RZ<LU9DCE<
      LU4ECL<I0OJJ
Sent: 241125/1611z @:I0OJJ.ITA.EU [Rome] obcm1.08-6-g5b69
From: I0OJJ @ I0OJJ.ITA.EU (Gustavo)
To:   KEPS @ AMSAT
X-Info: This message was generated automatically


QST de W1STR

AMSAT Orbital Elements for Amateur Satellites in TLE Format
From Orbital Analysis Office
New England Sci-Tech STEM Education Center
Natick, MA November 25, 2024
To all radio amateurs


These element sets describe the orbits of various satellites 
in use by the amateur radio community. For details see:
www.amsat.org/keplerian-elements-formats/

A daily update of element sets is available at:
www.amsat.org/tle/daily-bulletin.txt
or without bulletin text:
www.amsat.org/tle/dailytle.txt


AO-07
1 07530U 74089B   24329.48401587 -.00000017  00000-0  18605-3 0  9992
2 07530 101.9897 325.6966 0012300 137.3917  15.3891 12.53682877289124
UO-11
1 14781U 84021B   24329.34219404  .00003752  00000-0  41353-3 0  9999
2 14781  97.7280 294.1295 0006138 270.0176  90.0337 14.88089025172297
AO-27
1 22825U 93061C   24328.16551094  .00000314  00000-0  13746-3 0  9990
2 22825  98.7680  22.4428 0007964 341.1249  18.9637 14.30661356625340
FO-29
1 24278U 96046B   24329.71317560  .00000002  00000-0  35008-4 0  9990
2 24278  98.5865 243.3472 0350801 132.3895 230.7505 13.53222761396393
NOAA-15
1 25338U 98030A   24329.76860548  .00000418  00000-0  19034-3 0  9998
2 25338  98.5554 353.4608 0009703 210.0030 150.0596 14.26804255380333
GO-32
1 25397U 98043D   24329.28605908  .00000296  00000-0  14833-3 0  9997
2 25397  98.9457 298.5876 0002298  70.5537 289.5889 14.24195272370201
ISS
1 25544U 98067A   24329.89909100  .00027933  00000-0  49563-3 0  9990
2 25544  51.6414 239.1728 0007296 265.0633 214.0498 15.49980526483477
NO-44
1 26931U 01043C   24329.84759595  .00000654  00000-0  27704-3 0  9999
2 26931  67.0508 276.4129 0007141 261.7609  98.2683 14.31510238209100
SO-50
1 27607U 02058C   24329.72466818  .00003736  00000-0  50230-3 0  9991
2 27607  64.5545  87.6255 0032540  30.1480 330.1489 14.80358644180286
CO-55
1 27844U 03031E   24328.58296627  .00000875  00000-0  40282-3 0  9995
2 27844  98.6786 333.4467 0010587  46.4845 313.7212 14.23654286110465
CO-57
1 27848U 03031J   24327.94971826  .00000732  00000-0  34399-3 0  9993
2 27848  98.6815 332.9702 0010647  63.7124 296.5146 14.23038600110119
RS-22
1 27939U 03042A   24329.80295397  .00003414  00000-0  56155-3 0  9999
2 27939  98.3069 128.8811 0010632 273.3921 190.4039 14.71231540131880
NOAA-18
1 28654U 05018A   24329.77076432  .00000458  00000-0  26705-3 0  9995
2 28654  98.8627  45.3192 0013588 331.3132  28.7291 14.13429839  5943
CO-58
1 28895U 05043F   24329.36730174  .00004846  00000-0  82578-3 0  9990
2 28895  98.2226 105.8203 0014729 208.5120 151.5280 14.69420265 17967
CO-65
1 32785U 08021C   24329.49082374  .00010356  00000-0  82561-3 0  9993
2 32785  97.7714 294.0442 0011964 155.8845 204.2941 15.00466592899550
AAUSAT2
1 32788U 08021F   24329.69943189  .00066402  00000-0  20014-2 0  9995
2 32788  97.6048 312.1327 0004540  37.1746 322.9810 15.34061930902877
CO-66
1 32791U 08021J   24329.39058053  .00021626  00000-0  13160-2 0  9996
2 32791  97.7102 300.4982 0007240 108.0522 252.1496 15.10420686900648
RS-30
1 32953U 08025A   24329.79077862  .00000046  00000-0  25962-3 0  9990
2 32953  82.5039 349.5934 0020629 113.7716 246.5530 12.43153706749088
PRISM
1 33493U 09002B   24328.42829790  .00083468  00000-0  22838-2 0  9997
2 33493  98.1805  31.3644 0008040  55.7786 304.4217 15.37001309863339
NOAA-19
1 33591U 09005A   24329.74566307  .00000416  00000-0  24613-3 0  9993
2 33591  99.0273  27.0944 0013599 195.7769 164.2980 14.13208293814309
SRMSAT
1 37841U 11058D   24329.21774118  .00000658  00000-0  21451-3 0  9994
2 37841  19.9721 268.7542 0011852  54.9399  85.6573 14.11290936677194
RS-40
1 38735U 12041C   24329.56291095  .00000029  00000-0  13756-3 0  9997
2 38735  82.4771  69.8803 0017019 226.7856 133.1803 12.42620894559090
ZACUBE-1
1 39417U 13066B   24329.33309071  .00012444  00000-0  11795-2 0  9996
2 39417  97.7545 282.2362 0047494 352.4317   7.6180 14.92859054595447
Delfi-N3xt
1 39428U 13066N   24329.74059220  .00016384  00000-0  18669-2 0  9995
2 39428  97.8353 244.2815 0090921 287.4141  71.7148 14.83239708590026
GOMX-1
1 39430U 13066Q   24329.76444752  .00004190  00000-0  67243-3 0  9993
2 39430  97.7060 194.3879 0137494 101.3037 260.3654 14.65971994586554
LO-74
1 39440U 13066AA  24329.30164993  .00008522  00000-0  92823-3 0  9995
2 39440  97.8285 269.9490 0067935 108.9207 251.9389 14.86541474592093
AO-73
1 39444U 13066AE  24329.33458635  .00016352  00000-0  13996-2 0  9994
2 39444  97.7390 285.8877 0043500 330.2772  29.5978 14.96921335594025
DTUSAT-2
1 40030U 14033W   24329.87210737  .00014330  00000-0  10647-2 0  9994
2 40030  98.0321 287.2483 0011287  19.7565 340.4094 15.03079521567306
EO-80
1 40032U 14033Y   24329.37019333  .00015885  00000-0  11786-2 0  9991
2 40032  98.0206 286.6419 0008178 316.4218  43.6359 15.03130368566693
XW-2C
1 40906U 15049H   24329.73284805  .00121266  00000-0  11966-2 0  9998
2 40906  97.4601 352.7457 0007186  81.8404 278.3671 15.65504866509361
LILACSAT-2
1 40908U 15049K   24329.81345850  .00017070  00000-0  55416-3 0  9993
2 40908  97.5208 340.2536 0012298 135.2550 224.9686 15.31944600508036
IO-86
1 40931U 15052B   24322.18265442  .00001592  00000-0  12634-3 0  9991
2 40931   6.0008 339.1587 0012218  92.8814 267.2712 14.78351066494134
ChubuSat-2
1 41338U 16012B   24329.52938330  .00011079  00000-0  62514-3 0  9991
2 41338  31.0000  76.3265 0010862  50.9592 309.2012 15.11858656481850
ChubuSat-3
1 41339U 16012C   24329.68455601  .00010315  00000-0  59788-3 0  9995
2 41339  31.0072  75.0755 0010775  55.3920 304.7734 15.10881707481849
Horyu-4
1 41340U 16012D   24329.44192133  .00026823  00000-0  10485-2 0  9990
2 41340  31.0027   5.5572 0009975 173.0155 187.0628 15.24637181482557
Lapan A3
1 41603U 16040E   24329.80541245  .00006016  00000-0  22632-3 0  9995
2 41603  97.1402 336.4543 0009662 247.5480 112.4737 15.27443163467727
Pratham
1 41783U 16059A   24328.92743544  .00001900  00000-0  35542-3 0  9993
2 41783  97.8304 340.7944 0030868 232.0525 127.7889 14.65681202435932
CAS-2T
1 41847U 16066G   24329.27286805  .00002355  00000-0  34490-3 0  9999
2 41847  98.4449  39.3624 0350842  54.9446 308.4126 14.42439085422568
CAS-4B
1 42759U 17034B   24329.65995880  .00045297  00000-0  11200-2 0  9995
2 42759  43.0152  33.0596 0013821 358.5448   1.5366 15.39650877412034
CAS-4A
1 42761U 17034D   24329.64409181  .00044887  00000-0  10991-2 0  9991
2 42761  43.0192  31.3265 0014339   7.5794 352.5277 15.39943039412041
D-SAT
1 42794U 17036AF  24329.41753705  .00017051  00000-0  10674-2 0  9999
2 42794  97.4950 305.9264 0100993 324.1367  35.3107 15.05236737404780
TechnoSat
1 42829U 17042E   24329.46075376  .00006651  00000-0  55085-3 0  9991
2 42829  97.3881 141.8814 0010858 255.5267 104.4752 14.99124320401164
AO-91
1 43017U 17073E   24329.47431077  .00014471  00000-0  80230-3 0  9999
2 43017  97.5518 199.6000 0196448 115.0909 247.0844 14.98838532379621
S-Net D
1 43186U 18014G   24329.70230943  .00009831  00000-0  64050-3 0  9993
2 43186  97.5754 228.9171 0009737 167.5877 192.5592 15.08086281372664
S-Net B
1 43187U 18014H   24329.17477150  .00010222  00000-0  66606-3 0  9993
2 43187  97.5764 228.3577 0010605 164.9144 195.2402 15.08063280372589
S-Net A
1 43188U 18014J   24329.17244576  .00010013  00000-0  65229-3 0  9996
2 43188  97.5771 228.4821 0010444 165.8716 194.2806 15.08078633372582
S-Net C
1 43189U 18014K   24328.71232696  .00010424  00000-0  67905-3 0  9995
2 43189  97.5788 228.0079 0012323 161.4585 198.7095 15.08052393371062
Ten-Koh
1 43677U 18084G   24329.42241112  .00006047  00000-0  51195-3 0  9996
2 43677  98.0801 128.1184 0012529 203.9088 156.1553 14.98344325330699
PO-101
1 43678U 18084H   24329.74368776  .00004699  00000-0  41681-3 0  9998
2 43678  98.0866 132.7801 0007948 210.9851 149.0902 14.96685349330920
QO-100
1 43700U 18090A   24329.80348906  .00000158  00000-0  00000+0 0  9993
2 43700   0.0373  96.6645 0002231 187.1424  95.5314  1.00275216 22218
MinXSS-2
1 43758U 18099A   24328.91680809  .00025377  00000-0  13106-2 0  9991
2 43758  97.5334  29.3500 0015180 125.7207 234.5440 15.16185931326922
AO-95
1 43770U 18099N   24328.61659695  .00017886  00000-0  10696-2 0  9998
2 43770  97.5246  23.3895 0012462 171.0686 189.0768 15.11048168326599
RANGE-B
1 43772U 18099Q   24328.86021622  .00031310  00000-0  15206-2 0  9990
2 43772  97.5033  27.9713 0005122  78.6375 281.5434 15.18384605326871
RANGE-A
1 43773U 18099R   24329.59863003  .00009653  00000-0  67057-3 0  9996
2 43773  97.4814  17.8085 0013301 140.8449 219.3744 15.05670698326543
MOVE-II
1 43780U 18099Y   24328.14496693  .00060128  00000-0  20107-2 0  9999
2 43780  97.4987  30.8890 0005211 138.7749 221.3886 15.30758923327100
SNUSat 2
1 43782U 18099AA  24328.62148624  .00015072  00000-0  94336-3 0  9996
2 43782  97.4931  21.6099 0014694 114.9355 245.3402 15.09399288326586
SnugLite
1 43784U 18099AC  24328.88413896  .00017451  00000-0  10375-2 0  9995
2 43784  97.4744  21.1740 0005215 115.0280 245.1492 15.11319715326718
ITASat 1
1 43786U 18099AE  24329.37998204  .00013580  00000-0  87343-3 0  9992
2 43786  97.4887  22.3442 0016206 161.6763 198.5053 15.08404095326687
EAGLET 1
1 43790U 18099AJ  24328.96283760  .00009937  00000-0  68583-3 0  9991
2 43790  97.5089  22.3550 0013769 141.9140 218.3063 15.05899757326297
ESEO
1 43792U 18099AL  24329.73547096  .00004235  00000-0  33427-3 0  9999
2 43792  97.4874  18.7531 0009813 103.0121 257.2200 15.01190136326275
CSIM
1 43793U 18099AM  24329.16070609  .00058908  00000-0  19957-2 0  9995
2 43793  97.5130  33.7502 0009333 113.6922 246.5299 15.30315345327105
